Weather in Snovo-Zdorovo

Russia / Ryazan Oblast     54°06′21″N   41°52′09″E
temp.,
°C
wind,
m/s
gust,
m/s
humid.,
%
clouds,
%
prec.,
mm/h
press.,
hPa
HPBL,
m
18 may, tue
tue1800:00+17ese4116993 0.0 1012165
03:00+15ese411665 0.0 1012173
06:00+16ese4137315 0.0 1012240
09:00+22ese512597 0.0 1012487
12:00+26se69496 0.0 10111067
15:00+27ese610494 0.0 10101046
18:00+24ese613615 0.0 1010411
21:00+20ese615630 0.0 1009315
19 may, wed
wed1900:00+19ese716618 0.0 1009367
03:00+17ese4106111 0.0 1009199
06:00+16se4137393 0.0 1009391
09:00+21se5106198 0.0 1009676
12:00+24se5854100 0.0 1009992
15:00+26se51058100 0.0 10081496
18:00+24ese5116896 0.0 1007370
21:00+21ese7175055 0.0 1007469
20 may, thu
thu2000:00+16se358361 0.8 100968
03:00+15se3595100 1.3 1008100
06:00+15sse5109598 0.0 1010532
09:00+17sse71081100 0.1 1010984
12:00+19sse576396 0.1 10101622
15:00+19s7964100 0.5 10101413
18:00+17s5979100 0.6 1009812
21:00+14sse511896 0.8 1010352
21 may, fri
fri2100:00+12s5109598 0.0 1010273
03:00+12s4109677 0.1 1011286
06:00+13s61391100 0.1 1011721
09:00+12sw8127930 0.3 10131209
12:00+16sw8126171 0.0 10131681
15:00+15sw8126979 0.1 10151489
18:00+14wsw61173100 0.1 10171386
21:00+11wsw498498 0.1 1019292
22 may, sat
sat2200:00+9w229195 0.0 102032
03:00+10ne0185100 0.0 102111
06:00+10e3690100 0.4 1021194
09:00+10e5897100 11.9 1022304
12:00+14ene5786100 1.1 1021511
15:00+18e6773100 1.2 1019994
18:00+16ne51088100 0.1 1018369
21:00+13ne61196100 0.1 1017322